This is the latest recevied weather packets stored in our database for station/object KC8UZG. If no packets are shown the sender has not sent any weather packets the latest 10 day(s).
| Time | Temp. | Humidity | Pressure | Rain* | Wind** | Luminosity | Snow |
|---|---|---|---|---|---|---|---|
| 1777223732 | 12.78° C | 85% | 1018.1 hPa | 0 mm | - | 189 W/m² | - |
| 1777223138 | 12.78° C | 84% | 1018.2 hPa | 0 mm | - | 182 W/m² | - |
| 1777222517 | 12.22° C | 85% | 1018.2 hPa | 0 mm | - | 205 W/m² | - |
| 1777221923 | 12.22° C | 87% | 1018.2 hPa | 0 mm | - | 165 W/m² | - |
| 1777221329 | 11.67° C | 88% | 1018.4 hPa | 0 mm | - | 143 W/m² | - |
| 1777220735 | 11.67° C | 89% | 1018.4 hPa | 0 mm | - | 113 W/m² | - |
| 1777220141 | 11.67° C | 89% | 1018.4 hPa | 0 mm | - | 113 W/m² | - |
| 1777219520 | 11.67° C | 89% | 1018.4 hPa | 0 mm | - | 118 W/m² | - |
| 1777218926 | 11.11° C | 90% | 1018.4 hPa | 0 mm | - | 111 W/m² | - |
| 1777218332 | 11.11° C | 91% | 1018.4 hPa | 0 mm | - | 98 W/m² | - |
| 1777217738 | 10.56° C | 92% | 1018.4 hPa | 0 mm | - | 95 W/m² | - |
| 1777217117 | 10.56° C | 92% | 1018.4 hPa | 0 mm | - | 81 W/m² | - |
| 1777216523 | 10.56° C | 92% | 1018.4 hPa | 0 mm | - | 75 W/m² | - |
| 1777215929 | 10° C | 93% | 1018.4 hPa | 0 mm | - | 61 W/m² | - |
| 1777215335 | 10° C | 93% | 1018.4 hPa | 0 mm | - | 51 W/m² | - |
| 1777214741 | 10° C | 93% | 1018.2 hPa | 0 mm | - | 56 W/m² | - |
| 1777214120 | 10° C | 94% | 1018.1 hPa | 0 mm | - | 48 W/m² | - |
| 1777213526 | 10° C | 94% | 1017.8 hPa | 0 mm | - | 41 W/m² | - |
| 1777212932 | 10° C | 93% | 1018 hPa | 0 mm | - | 37 W/m² | - |
| 1777212338 | 10° C | 93% | 1017.7 hPa | 0 mm | - | 41 W/m² | - |
| 1777211717 | 10° C | 93% | 1017.7 hPa | 0 mm | - | 42 W/m² | - |
| 1777211123 | 10° C | 94% | 1017.8 hPa | 0 mm | - | 43 W/m² | - |
| 1777210529 | 9.44° C | 94% | 1017.7 hPa | 0 mm | - | 40 W/m² | - |
| 1777209935 | 9.44° C | 95% | 1017.7 hPa | 0 mm | - | 31 W/m² | - |
| 1777209341 | 9.44° C | 96% | 1017.6 hPa | 0 mm | - | 25 W/m² | - |
* Rain latest hour (hover to see other rain measurements)
** Current wind speed in m/s (hover to see current wind gust speed)